Reno - Stead, NV

3:59 AM PDT on August 17, 2017 (GMT -0700)
Reno - Stead

Weather History for KRTS - April, 2014

Change the Weather History Date:

Thursday, April 17, 2014

  Actual Average (KRNO) Record (KRNO)
Temperature  
Mean Temperature 52 °F -  
Max Temperature 73 °F 62 °F 83 °F (1962)
Min Temperature 32 °F 32 °F 14 °F (1944)
Degree Days  
Heating Degree Days 12    
Growing Degree Days 2 (Base 50)    
Moisture  
Dew Point 29 °F    
Average Humidity 39    
Maximum Humidity 69    
Minimum Humidity 18    
Precipitation  
Precipitation 0.00 in - - ()
Sea Level Pressure  
Sea Level Pressure 29.92 in    
Wind  
Wind Speed 8 mph (West)    
Max Wind Speed 26 mph    
Max Gust Speed 32 mph    
Visibility 10 miles    
Events      
Averages and records for this station are not official NWS values.
T = Trace of Precipitation, MM = Missing Value Source: NWS Daily Summary

Daily Weather History Graph

Daily Weather History Graph

Search for Another Location

Airport or City:

Trip Planner

Search our weather history database for the weather conditions in past years. The results will help you decide how hot, cold, wet, or windy it might be!

Date:

Astronomy

Apr. 17, 2014 Rise Set
Actual Time 6:19 AM PDT 7:39 PM PDT
Civil Twilight 5:51 AM PDT 8:07 PM PDT
Nautical Twilight 5:17 AM PDT 8:41 PM PDT
Astronomical Twilight 4:42 AM PDT 9:17 PM PDT
Moon 10:30 PM PDT 7:55 AM PDT
Length of Visible Light 14h 16m
Length of Day
13h 20m
Waning Gibbous, 93% of the Moon is Illuminated
Apr 17
Waning Gibbous
Apr 22
Last Quarter
Apr 28
New
May 6
First Quarter
May 14
Full

Hourly Weather History & Observations

Time (PDT) Temp. Windchill Dew Point Humidity Pressure Visibility Wind Dir Wind Speed Gust Speed Precip Events Conditions
12:15 AM 44.6 °F 40.2 °F 23.0 °F 43% 30.01 in 10.0 mi West 8.1 mph - N/A   Clear
12:35 AM 48.2 °F - 24.8 °F 40% 30.00 in 10.0 mi WNW 6.9 mph - N/A   Clear
12:55 AM 48.2 °F - 26.6 °F 43% 30.00 in 10.0 mi Calm Calm - N/A   Clear
1:15 AM 44.6 °F 43.1 °F 24.8 °F 46% 30.00 in 10.0 mi West 3.5 mph - N/A   Clear
1:35 AM 42.8 °F 41.1 °F 24.8 °F 49% 30.00 in 10.0 mi NNW 3.5 mph - N/A   Clear
1:55 AM 46.4 °F - 26.6 °F 46% 30.00 in 10.0 mi Calm Calm - N/A   Clear
2:15 AM 46.4 °F 45.2 °F 26.6 °F 46% 29.99 in 10.0 mi North 3.5 mph - N/A   Clear
2:35 AM 44.6 °F 43.1 °F 26.6 °F 49% 29.99 in 10.0 mi North 3.5 mph - N/A   Clear
2:55 AM 44.6 °F 41.4 °F 26.6 °F 49% 29.99 in 10.0 mi North 5.8 mph - N/A   Clear
3:15 AM 41.0 °F 39.0 °F 24.8 °F 53% 29.98 in 10.0 mi North 3.5 mph - N/A   Clear
3:35 AM 37.4 °F - 23.0 °F 56% 29.98 in 10.0 mi Calm Calm - N/A   Clear
3:55 AM 37.4 °F 32.8 °F 24.8 °F 60% 29.98 in 10.0 mi NNW 5.8 mph - N/A   Clear
4:15 AM 39.2 °F 37.0 °F 24.8 °F 56% 29.97 in 10.0 mi West 3.5 mph - N/A   Clear
4:35 AM 37.4 °F 33.8 °F 24.8 °F 60% 29.97 in 10.0 mi NW 4.6 mph - N/A   Clear
4:55 AM 39.2 °F 35.9 °F 24.8 °F 56% 29.97 in 10.0 mi North 4.6 mph - N/A   Clear
5:15 AM 35.6 °F 29.9 °F 24.8 °F 65% 29.96 in 10.0 mi North 6.9 mph - N/A   Clear
5:35 AM 39.2 °F 37.0 °F 24.8 °F 56% 29.96 in 10.0 mi North 3.5 mph - N/A   Clear
5:55 AM 35.6 °F - 24.8 °F 65% 29.95 in 10.0 mi Calm Calm - N/A   Clear
6:15 AM 32.0 °F 28.7 °F 23.0 °F 69% 29.96 in 10.0 mi NW 3.5 mph - N/A   Clear
6:35 AM 33.8 °F - 23.0 °F 65% 29.96 in 10.0 mi Calm Calm - N/A   Clear
6:55 AM 35.6 °F - 23.0 °F 60% 29.96 in 10.0 mi Calm Calm - N/A   Clear
7:15 AM 37.4 °F - 24.8 °F 60% 29.96 in 10.0 mi Calm Calm - N/A   Clear
7:35 AM 41.0 °F - 26.6 °F 57% 29.96 in 10.0 mi Calm Calm - N/A   Clear
7:55 AM 44.6 °F - 26.6 °F 49% 29.96 in 10.0 mi Calm Calm - N/A   Clear
8:15 AM 48.2 °F - 28.4 °F 46% 29.95 in 10.0 mi Calm Calm - N/A   Clear
8:35 AM 50.0 °F - 28.4 °F 43% 29.95 in 10.0 mi Calm Calm - N/A   Clear
9:15 AM 55.4 °F - 26.6 °F 33% 29.94 in 10.0 mi Calm Calm - N/A   Clear
9:35 AM 57.2 °F - 26.6 °F 31% 29.94 in 10.0 mi ESE 4.6 mph - N/A   Clear
10:15 AM 60.8 °F - 26.6 °F 27% 29.93 in 10.0 mi ESE 4.6 mph - N/A   Clear
10:35 AM 62.6 °F - 24.8 °F 24% 29.92 in 10.0 mi SE 12.7 mph - N/A   Clear
10:55 AM 64.4 °F - 26.6 °F 24% 29.92 in 10.0 mi SE 6.9 mph - N/A   Clear
11:15 AM 66.2 °F - 28.4 °F 24% 29.91 in 10.0 mi South 8.1 mph - N/A   Clear
11:35 AM 68.0 °F - 33.8 °F 28% 29.91 in 10.0 mi SW 15.0 mph 20.7 mph N/A   Clear
11:55 AM 71.6 °F - 33.8 °F 25% 29.90 in 10.0 mi WNW 16.1 mph 21.9 mph N/A   Partly Cloudy
12:15 PM 69.8 °F - 35.6 °F 28% 29.90 in 10.0 mi NW 17.3 mph 24.2 mph N/A   Partly Cloudy
12:35 PM 68.0 °F - 35.6 °F 30% 29.89 in 10.0 mi West 8.1 mph 25.3 mph N/A   Scattered Clouds
12:55 PM 71.6 °F - 32.0 °F 23% 29.88 in 10.0 mi SW 19.6 mph 27.6 mph N/A   Partly Cloudy
1:15 PM 71.6 °F - 30.2 °F 22% 29.88 in 10.0 mi WSW 19.6 mph 27.6 mph N/A   Clear
1:35 PM 71.6 °F - 28.4 °F 20% 29.88 in 10.0 mi WSW 23.0 mph 32.2 mph N/A   Clear
1:55 PM 73.4 °F - 28.4 °F 19% 29.88 in 10.0 mi West 23.0 mph 32.2 mph N/A   Clear
2:15 PM 73.4 °F - 26.6 °F 18% 29.87 in 10.0 mi West 26.5 mph 32.2 mph N/A   Clear
2:35 PM 71.6 °F - 28.4 °F 20% 29.87 in 10.0 mi WSW 20.7 mph 29.9 mph N/A   Clear
2:55 PM 71.6 °F - 28.4 °F 20% 29.86 in 10.0 mi West 20.7 mph 26.5 mph N/A   Clear
3:15 PM 71.6 °F - 28.4 °F 20% 29.86 in 10.0 mi WSW 19.6 mph 27.6 mph N/A   Partly Cloudy
3:35 PM 69.8 °F - 28.4 °F 21% 29.86 in 10.0 mi WSW 16.1 mph 19.6 mph N/A   Partly Cloudy
3:55 PM 68.0 °F - 28.4 °F 23% 29.85 in 10.0 mi West 17.3 mph 25.3 mph N/A   Clear
4:15 PM 68.0 °F - 28.4 °F 23% 29.85 in 10.0 mi West 16.1 mph 31.1 mph N/A   Partly Cloudy
4:35 PM 68.0 °F - 32.0 °F 26% 29.85 in 10.0 mi SW 17.3 mph 26.5 mph N/A   Partly Cloudy
4:55 PM 66.2 °F - 32.0 °F 28% 29.85 in 10.0 mi SW 15.0 mph 24.2 mph N/A   Clear
5:15 PM 66.2 °F - 32.0 °F 28% 29.85 in 10.0 mi WSW 18.4 mph 23.0 mph N/A   Clear
5:35 PM 66.2 °F - 32.0 °F 28% 29.85 in 10.0 mi SW 13.8 mph 21.9 mph N/A   Clear
5:55 PM 64.4 °F - 33.8 °F 32% 29.86 in 10.0 mi WSW 16.1 mph 23.0 mph N/A   Clear
6:15 PM 64.4 °F - 35.6 °F 34% 29.86 in 10.0 mi WSW 16.1 mph 21.9 mph N/A   Clear
6:35 PM 64.4 °F - 32.0 °F 30% 29.86 in 10.0 mi West 18.4 mph 21.9 mph N/A   Clear
6:55 PM 62.6 °F - 32.0 °F 32% 29.86 in 10.0 mi West 19.6 mph 25.3 mph N/A   Clear
7:15 PM 62.6 °F - 32.0 °F 32% 29.86 in 10.0 mi West 17.3 mph 28.8 mph N/A   Clear
7:35 PM 60.8 °F - 32.0 °F 34% 29.86 in 10.0 mi West 18.4 mph 24.2 mph N/A   Clear
7:55 PM 59.0 °F - 32.0 °F 36% 29.87 in 10.0 mi West 19.6 mph 24.2 mph N/A   Clear
8:15 PM 59.0 °F - 32.0 °F 36% 29.88 in 10.0 mi WSW 16.1 mph 25.3 mph N/A   Clear
8:35 PM 59.0 °F - 32.0 °F 36% 29.89 in 10.0 mi West 10.4 mph - N/A   Clear
8:55 PM 57.2 °F - 33.8 °F 41% 29.90 in 10.0 mi WSW 9.2 mph - N/A   Clear
9:15 PM 57.2 °F - 33.8 °F 41% 29.91 in 10.0 mi WSW 13.8 mph 18.4 mph N/A   Clear
9:55 PM 57.2 °F - 33.8 °F 41% 29.91 in 10.0 mi West 18.4 mph 24.2 mph N/A   Clear
10:15 PM 57.2 °F - 35.6 °F 44% 29.92 in 10.0 mi West 18.4 mph 25.3 mph N/A   Clear
10:35 PM 55.4 °F - 35.6 °F 47% 29.91 in 10.0 mi WSW 15.0 mph - N/A   Clear
10:55 PM 55.4 °F - 33.8 °F 44% 29.91 in 10.0 mi WSW 11.5 mph - N/A   Clear
11:15 PM 55.4 °F - 32.0 °F 41% 29.92 in 10.0 mi NW 4.6 mph - N/A   Clear
11:35 PM 53.6 °F - 33.8 °F 47% 29.92 in 10.0 mi North 12.7 mph 16.1 mph N/A   Clear
11:55 PM 50.0 °F - 37.4 °F 62% 29.93 in 10.0 mi North 13.8 mph - N/A   Clear